Wind_Speed
28 28 29 30 30 30 30 31 32 33 34 36 37 38 39 39 40 40 41 42 43 44 43 43 42 41 43 44 44 44 45 46 46 45 46 48 49 50 51 52 53 54 56
27 28 28 29 29 29 30 30 31 33 34 36 37 38 38 39 40 41 41 41 41 42 42 42 42 42 43 43 44 45 46 46 47 46 46 48 49 50 52 52 53 54 55
28 29 29 29 29 30 31 32 32 34 34 35 36 37 38 39 40 40 40 41 41 41 42 42 42 43 44 44 45 46 47 47 48 48 48 49 50 51 52 53 53 54 54
29 29 30 30 30 31 32 34 35 35 35 35 36 38 39 40 40 39 40 40 40 41 41 41 42 43 44 45 46 46 47 48 48 49 49 50 50 51 52 53 53 53 53
29 29 30 31 32 33 34 35 36 36 36 37 38 39 40 40 39 39 39 40 40 40 41 41 42 43 44 45 46 46 47 48 48 49 50 50 51 52 52 53 53 53 53
29 30 31 32 32 33 34 35 35 36 37 38 38 39 39 39 39 40 40 40 40 41 41 42 43 44 45 45 46 48 48 49 49 50 51 51 51 52 52 53 53 54 53
30 30 31 31 32 33 34 34 35 36 36 37 38 38 38 39 40 41 41 41 41 42 42 43 43 45 46 47 48 49 49 49 50 51 51 51 51 52 53 54 54 54 52
31 31 31 32 33 33 34 35 36 37 37 37 37 38 39 40 40 41 41 42 43 43 44 44 46 46 47 48 49 49 49 50 51 51 51 51 52 53 54 54 54 52 51
32 32 33 33 34 34 35 36 37 37 37 37 38 39 40 41 41 42 42 43 44 44 45 46 47 48 49 50 50 50 51 51 51 51 51 52 53 54 54 54 53 52 51
33 33 34 35 35 36 37 37 38 38 38 38 39 40 41 42 42 43 43 44 45 45 46 47 48 48 49 50 51 52 52 51 51 51 51 52 53 53 53 52 52 52 51
35 35 36 36 36 37 38 39 39 40 40 40 40 42 43 43 43 44 44 45 45 46 46 47 48 48 49 51 51 52 51 51 50 51 51 52 52 51 51 52 51 51 52
36 37 37 38 38 38 39 39 40 40 41 42 42 43 44 44 45 46 45 45 46 46 46 47 48 49 50 51 51 51 50 50 50 50 51 51 50 50 50 51 51 52 53
38 39 39 40 39 39 40 40 41 41 42 43 43 43 44 45 46 46 46 46 46 46 47 48 49 50 51 51 51 51 50 50 51 51 52 51 50 50 50 51 52 52 53
39 39 40 40 40 41 42 42 43 43 43 43 44 45 45 46 46 47 46 46 46 47 48 49 50 51 51 51 51 51 51 51 52 52 52 51 51 51 51 51 51 51 51
39 40 40 41 41 41 42 43 43 44 44 44 45 46 47 46 47 47 47 47 48 50 50 50 50 51 50 50 51 51 52 53 53 53 53 52 51 51 51 51 51 51 51
40 40 41 41 42 43 43 43 43 44 45 46 46 46 46 47 48 48 49 49 50 50 51 51 51 50 51 51 51 51 52 53 53 53 53 52 52 51 51 51 51 51 50
41 41 41 42 43 43 44 44 44 44 45 46 46 47 47 48 49 50 50 51 51 51 51 50 50 50 50 51 51 52 52 53 52 52 53 52 51 51 51 50 50 49 49
42 42 43 43 43 44 44 44 44 44 45 46 47 48 49 50 51 51 52 52 52 52 52 52 52 52 52 52 52 52 53 53 52 52 52 51 51 50 49 49 48 48 48
43 43 44 44 44 45 45 45 45 46 47 47 48 49 50 51 52 52 53 52 52 53 53 53 53 53 54 54 53 53 52 52 51 50 50 50 49 49 48 48 47 47 46
44 44 44 45 45 45 45 46 47 48 48 49 49 50 51 52 52 52 53 53 53 54 54 54 54 54 54 53 52 52 51 51 50 50 50 49 49 48 47 46 46 45 45
45 45 45 45 46 46 47 48 49 49 49 50 51 51 52 52 52 52 53 53 54 54 55 55 54 54 53 52 51 50 50 50 50 50 49 49 48 47 46 45 44 45 44
45 46 46 46 47 48 49 50 50 51 51 51 52 52 53 53 53 53 54 54 54 55 55 54 54 53 52 51 50 50 50 50 49 49 49 48 47 46 45 44 44 43 43
47 47 47 48 49 49 50 51 52 52 53 53 53 53 54 54 54 54 55 55 56 56 55 54 53 52 51 50 50 50 49 49 48 48 48 46 46 45 44 43 43 42 41
48 49 49 49 50 51 51 52 53 54 54 54 54 54 55 55 55 55 56 55 56 55 54 53 52 51 50 50 49 49 49 49 48 47 47 45 45 44 43 42 41 40 39
50 51 51 52 52 52 53 53 54 55 55 55 55 55 55 56 56 57 57 57 56 55 53 52 52 51 51 51 50 50 49 49 48 47 45 44 43 42 41 40 39 38 36
52 53 54 54 54 54 55 56 56 56 56 56 56 57 57 57 58 58 57 57 56 54 53 53 52 52 52 51 50 50 48 47 46 44 42 42 41 40 39 38 37 36 34
Wind_Direction
294 293 292 291 290 293 294 295 295 295 295 295 295 295 295 296 296 298 299 299 298 299 300 299 298 299 300 301 301 301 301 301 302 301 301 301 300 300 300 300 299 299 298
296 295 294 292 292 294 295 296 297 297 296 295 295 295 296 297 297 298 299 299 300 300 300 300 300 300 301 301 302 302 302 303 303 302 302 302 302 302 302 302 301 301 300
297 296 296 295 295 295 296 297 298 299 298 298 298 297 298 299 299 300 300 301 301 302 302 301 301 301 302 302 303 304 303 303 303 302 303 303 303 303 304 304 303 302 302
297 297 297 296 295 295 296 297 298 299 299 299 299 299 299 299 299 301 302 303 303 303 303 302 302 302 303 303 304 304 304 304 304 304 304 304 305 305 305 304 304 303 303
298 297 297 297 296 297 297 297 298 298 298 299 299 300 300 300 301 302 302 303 303 303 302 302 302 303 303 304 305 305 305 305 305 306 306 306 305 305 305 305 305 305 305
298 298 298 298 298 298 299 299 299 299 300 301 302 301 302 302 303 303 302 303 303 303 303 303 304 304 304 304 305 305 305 306 306 306 306 306 306 306 306 307 306 306 305
301 300 300 300 300 300 300 301 300 300 301 302 303 304 304 304 304 304 304 303 302 302 303 304 304 304 304 305 305 306 307 307 307 307 307 307 307 307 307 308 308 308 308
305 303 302 302 301 301 302 302 301 300 301 302 303 303 304 305 305 305 305 304 303 302 302 303 304 305 305 305 306 306 306 306 307 307 307 308 307 308 309 309 309 309 309
305 303 303 302 302 302 303 303 302 301 302 302 302 303 304 304 304 305 305 305 304 304 304 304 305 305 305 305 306 306 306 306 306 306 307 308 308 309 309 309 309 309 309
304 303 302 302 301 302 303 303 302 301 301 301 302 303 305 305 305 305 305 305 304 305 305 305 306 306 307 307 307 307 306 306 306 306 307 308 309 309 309 309 310 310 310
304 304 303 302 301 302 303 303 302 302 302 302 302 304 305 305 306 306 306 305 306 306 306 306 306 307 307 307 308 308 308 308 308 307 308 309 309 309 308 309 310 310 311
303 303 303 302 301 302 304 303 302 303 303 303 304 305 306 306 307 307 306 306 307 307 307 306 307 307 307 307 308 308 308 308 308 309 310 310 309 308 308 308 309 310 310
303 303 303 303 303 303 304 303 303 302 302 303 303 305 306 307 307 307 306 306 307 307 307 307 307 307 307 308 308 308 308 309 308 309 309 309 308 308 308 308 309 309 310
302 302 302 301 302 303 303 302 302 302 302 303 304 305 305 306 307 307 307 306 307 308 308 309 309 309 308 308 308 308 308 308 308 309 309 309 308 308 308 308 308 309 310
302 302 301 301 301 302 302 302 302 301 302 302 303 305 306 307 307 307 307 308 308 307 308 308 308 308 308 308 308 308 308 308 308 308 309 309 308 308 309 309 309 310 310
303 303 302 302 302 302 303 302 302 302 302 303 304 305 306 307 307 307 307 308 308 308 309 309 309 309 309 309 309 309 309 308 308 308 309 309 309 309 309 310 310 310 310
303 303 303 302 302 303 303 303 302 302 303 304 304 305 306 307 307 307 307 308 308 309 310 310 311 311 310 311 311 311 311 310 310 309 310 310 309 309 310 310 311 311 311
303 303 302 302 303 303 303 303 303 303 304 305 305 306 307 308 308 308 308 308 309 309 310 310 311 311 311 311 311 311 311 311 311 310 311 311 310 310 310 311 311 311 312
304 303 302 302 302 303 303 304 304 303 303 304 305 306 307 307 308 308 308 308 308 309 309 310 310 310 310 311 311 311 311 311 311 311 312 312 311 310 310 311 312 312 312
302 302 302 301 301 302 303 304 304 305 305 305 306 306 307 307 307 307 307 307 307 308 309 309 309 309 310 310 310 310 310 311 311 311 312 313 312 311 310 311 312 312 313
301 301 301 300 301 302 303 304 305 305 306 306 306 307 307 306 306 306 306 306 307 308 308 308 308 309 309 309 309 309 309 310 310 311 312 312 312 311 311 311 312 313 313
299 299 300 300 301 302 303 304 305 305 306 306 307 307 307 306 306 306 306 306 307 308 308 307 307 307 308 308 308 308 308 309 309 310 311 311 312 312 311 312 313 314 314
298 299 300 300 301 303 304 305 305 306 306 306 306 307 307 306 306 306 306 306 306 307 307 306 306 307 307 307 308 307 308 308 308 309 310 310 311 312 311 311 312 313 314
297 298 299 301 303 304 305 306 306 306 306 306 306 307 307 307 306 306 306 306 306 306 306 306 306 306 306 307 307 307 308 308 308 309 310 310 310 311 311 311 312 312 312
296 297 298 300 302 303 304 306 306 306 306 306 306 306 307 306 306 306 306 305 306 306 306 305 305 305 305 306 306 306 307 307 308 308 309 310 310 311 311 311 311 311 311
296 297 298 300 301 302 303 304 305 306 306 305 305 306 306 306 306 306 305 305 305 305 304 304 304 304 305 305 305 306 306 306 307 308 308 310 310 311 311 312 312 311 310
Height
5680 5678 5676 5674 5673 5671 5668 5666 5664 5661 5658 5656 5653 5650 5647 5643 5640 5636 5632 5628 5624 5619 5615 5611 5606 5602 5598 5593 5588 5583 5578 5573 5570 5567 5561 5556 5550 5545 5540 5535 5529 5524 5518
5674 5672 5669 5667 5666 5664 5661 5659 5656 5653 5650 5647 5644 5641 5638 5634 5630 5626 5622 5617 5613 5609 5604 5600 5596 5591 5587 5582 5577 5572 5567 5562 5557 5554 5549 5543 5538 5532 5527 5521 5515 5509 5502
5667 5665 5663 5661 5659 5657 5654 5651 5648 5645 5642 5639 5635 5632 5628 5624 5620 5616 5612 5607 5603 5598 5594 5590 5585 5580 5576 5571 5566 5561 5555 5550 5545 5540 5536 5530 5525 5518 5513 5507 5501 5494 5488
5661 5659 5656 5654 5652 5650 5647 5644 5641 5637 5634 5630 5626 5622 5619 5614 5610 5606 5602 5597 5593 5588 5584 5579 5574 5570 5565 5560 5554 5549 5544 5538 5533 5527 5522 5517 5511 5505 5498 5492 5487 5480 5473
5654 5652 5650 5647 5645 5642 5639 5636 5632 5629 5625 5621 5617 5613 5608 5604 5600 5596 5592 5587 5583 5578 5573 5568 5564 5559 5554 5548 5543 5537 5531 5526 5520 5514 5509 5503 5497 5490 5484 5477 5471 5466 5459
5647 5645 5642 5640 5637 5634 5631 5627 5624 5620 5616 5612 5608 5603 5598 5594 5590 5586 5581 5577 5572 5568 5563 5558 5553 5548 5542 5537 5531 5525 5519 5513 5507 5501 5496 5489 5483 5476 5469 5462 5455 5450 5445
5640 5638 5635 5632 5629 5626 5622 5619 5615 5611 5607 5602 5598 5594 5589 5585 5580 5575 5571 5566 5561 5557 5552 5547 5542 5537 5531 5525 5519 5513 5507 5500 5494 5488 5482 5475 5469 5462 5455 5449 5441 5433 5427
5633 5630 5627 5624 5621 5617 5614 5610 5606 5602 5597 5593 5589 5584 5580 5575 5570 5565 5560 5555 5550 5545 5541 5536 5531 5525 5519 5513 5507 5501 5494 5488 5481 5475 5468 5462 5454 5447 5440 5433 5426 5420 5414
5626 5622 5619 5616 5613 5609 5605 5601 5597 5592 5588 5584 5580 5575 5570 5565 5560 5555 5549 5544 5539 5534 5529 5523 5518 5513 5507 5501 5495 5489 5483 5476 5469 5461 5455 5448 5441 5433 5426 5419 5412 5406 5401
5618 5614 5611 5607 5604 5600 5596 5592 5588 5583 5579 5574 5570 5565 5560 5555 5549 5544 5538 5533 5528 5523 5518 5512 5506 5500 5494 5487 5481 5475 5469 5463 5456 5449 5443 5436 5428 5420 5412 5405 5398 5391 5385
5610 5606 5602 5599 5595 5591 5587 5583 5578 5574 5569 5565 5560 5555 5550 5544 5538 5532 5526 5521 5516 5510 5505 5500 5494 5488 5482 5475 5468 5462 5455 5449 5443 5436 5430 5423 5415 5408 5400 5392 5385 5377 5370
5602 5598 5594 5590 5586 5582 5577 5573 5568 5564 5560 5555 5550 5545 5539 5533 5527 5521 5515 5509 5504 5498 5493 5487 5482 5476 5469 5463 5456 5449 5442 5436 5429 5423 5417 5410 5402 5396 5388 5381 5373 5365 5357
5592 5588 5584 5580 5576 5572 5567 5563 5558 5554 5549 5544 5539 5534 5528 5522 5516 5510 5504 5498 5492 5486 5481 5475 5469 5463 5456 5450 5443 5436 5429 5423 5416 5410 5403 5396 5389 5382 5376 5369 5361 5353 5346
5583 5578 5574 5570 5566 5561 5557 5552 5547 5543 5538 5533 5528 5523 5517 5511 5505 5499 5493 5487 5481 5475 5469 5462 5456 5450 5443 5437 5430 5423 5416 5409 5402 5396 5389 5382 5376 5369 5362 5355 5348 5341 5334
5573 5568 5564 5560 5555 5551 5546 5541 5537 5532 5527 5522 5517 5512 5506 5501 5494 5487 5481 5475 5469 5463 5456 5450 5443 5437 5430 5423 5416 5409 5402 5395 5388 5382 5375 5368 5362 5355 5348 5341 5334 5327 5320
5563 5558 5554 5550 5545 5540 5535 5531 5525 5521 5515 5510 5505 5499 5494 5488 5482 5475 5469 5462 5456 5449 5442 5436 5430 5423 5416 5410 5403 5396 5389 5381 5374 5367 5361 5354 5347 5340 5334 5327 5320 5313 5306
5552 5548 5543 5539 5534 5530 5525 5520 5515 5509 5504 5498 5493 5487 5482 5476 5469 5463 5456 5449 5443 5436 5430 5423 5416 5410 5403 5396 5389 5382 5375 5368 5360 5353 5346 5339 5332 5326 5319 5313 5306 5299 5293
5541 5537 5533 5528 5523 5518 5513 5508 5503 5498 5493 5487 5481 5475 5469 5463 5456 5450 5443 5437 5431 5424 5417 5411 5404 5397 5390 5383 5376 5369 5362 5354 5347 5340 5333 5326 5319 5312 5306 5299 5293 5286 5280
5531 5526 5521 5517 5512 5507 5502 5497 5492 5487 5481 5476 5470 5463 5457 5450 5443 5437 5430 5424 5418 5412 5405 5398 5391 5383 5376 5369 5362 5355 5348 5341 5334 5327 5320 5313 5306 5299 5293 5287 5281 5274 5268
5519 5515 5510 5505 5501 5496 5491 5485 5480 5474 5469 5463 5457 5451 5445 5438 5431 5425 5418 5411 5405 5398 5391 5384 5377 5370 5363 5356 5349 5342 5335 5328 5321 5315 5308 5301 5294 5287 5281 5275 5269 5263 5256
5508 5503 5498 5493 5489 5484 5479 5473 5468 5462 5456 5450 5444 5438 5431 5425 5418 5412 5405 5398 5391 5384 5378 5371 5364 5357 5349 5342 5335 5329 5322 5316 5309 5302 5296 5289 5282 5275 5269 5263 5257 5251 5245
5495 5491 5486 5482 5477 5471 5466 5461 5455 5449 5443 5437 5431 5424 5417 5410 5404 5398 5391 5384 5377 5370 5363 5356 5350 5343 5336 5329 5322 5316 5309 5303 5297 5290 5284 5277 5271 5264 5258 5253 5247 5241 5235
5482 5478 5474 5469 5464 5458 5453 5447 5441 5435 5430 5423 5417 5410 5404 5397 5390 5384 5377 5370 5363 5356 5349 5342 5335 5329 5322 5315 5308 5302 5296 5290 5284 5277 5271 5265 5259 5253 5248 5242 5236 5231 5225
5469 5465 5460 5455 5450 5444 5439 5433 5427 5421 5415 5409 5402 5396 5389 5383 5376 5369 5362 5356 5349 5341 5334 5327 5321 5315 5308 5302 5295 5289 5282 5276 5271 5265 5259 5253 5248 5243 5237 5232 5226 5221 5216
5455 5450 5446 5441 5436 5430 5424 5419 5413 5406 5400 5394 5387 5381 5374 5367 5361 5354 5347 5340 5333 5326 5319 5313 5306 5300 5294 5288 5281 5275 5269 5263 5258 5252 5247 5242 5237 5232 5227 5222 5217 5212 5207
5440 5435 5431 5426 5421 5415 5409 5404 5398 5391 5385 5378 5372 5365 5358 5351 5345 5338 5330 5324 5317 5310 5304 5298 5292 5285 5279 5273 5267 5262 5256 5251 5245 5240 5235 5231 5226 5221 5217 5212 5207 5202 5198